Flag for Greece Weather past 2 weeks in Heraklion, Crete, Greece

Now
64 °F

Clear.


Feels Like: 64 °F
Forecast: 62 / 67 °F
Wind: 3 mph from North

Location: Heraklion Airport

Current Time: May 28, 2015 at 5:41:12 AM

Latest Report: May 28, 2015 at 4:50 AM


Visibility: 10 mi

Pressure: 29.77 "Hg

Humidity: 68%

Dew point: 54 °F

Location of HeraklionLocation

Historic Weather in Heraklion — Graph

°F

Heraklion temperature yesterday

Maximum temperature yesterday: 75 °F (at 1:50 PM)
Minimum temperature yesterday: 68 °F (at 12:20 AM)
Average temperature yesterday: 71 °F

Past Weeks' High & Low Weather Summary

 TemperatureHumidityPressure
High84 °F (May 26, 12:50 PM)94% (May 17, 9:50 PM)30.12 "Hg (May 17, 9:50 PM)
Low55 °F (May 14, 5:50 AM)20% (May 19, 10:20 AM)29.59 "Hg (May 27, 2:50 AM)
Average69 °F69%29.90 "Hg
* Reported May 13 4:20 AM — May 28 4:20 AM, Heraklion, Weather by CustomWeather, © 2015

Note: Actual official high and low records may vary slightly from our data, if they occured in-between our weather recording intervals... More about our weather records

Advertising

Heraklion weather history for previous 24 hours

 ConditionsComfort  
Time TempWeatherWind HumidityBarometerVisibility
4:20 AM
Thu, May 28
64 °FPassing clouds.3 mph73%29.77 "HgN/A
3:50 AM64 °FPassing clouds.6 mph73%29.77 "HgN/A
3:20 AM66 °FPassing clouds.3 mph73%29.77 "HgN/A
2:50 AM66 °FPassing clouds.3 mph73%29.77 "HgN/A
2:20 AM66 °FPassing clouds.3 mph73%29.77 "HgN/A
1:50 AM66 °FPassing clouds.3 mph73%29.77 "HgN/A
1:20 AM68 °FPassing clouds.3 mph64%29.77 "HgN/A
12:50 AM68 °FPassing clouds.5 mph64%29.77 "HgN/A
12:20 AM68 °FPassing clouds.9 mph64%29.77 "HgN/A
11:50 PM
Wed, May 27
68 °FPassing clouds.8 mph64%29.77 "HgN/A
11:20 PM68 °FPassing clouds.7 mph78%29.77 "HgN/A
10:50 PM68 °FPassing clouds.6 mph78%29.77 "HgN/A
10:20 PM68 °FPassing clouds.12 mph83%29.77 "HgN/A
9:50 PM68 °FPassing clouds.15 mph83%29.77 "HgN/A
9:20 PM68 °FScattered clouds.15 mph83%29.74 "HgN/A
8:50 PM68 °FScattered clouds.13 mph83%29.74 "HgN/A
8:20 PM72 °FScattered clouds.15 mph78%29.74 "HgN/A
7:50 PM72 °FScattered clouds.13 mph78%29.74 "HgN/A
7:20 PM72 °FScattered clouds.13 mph78%29.71 "HgN/A
6:50 PM72 °FScattered clouds.9 mph78%29.71 "HgN/A
6:20 PM73 °FScattered clouds.7 mph78%29.71 "HgN/A
5:50 PM73 °FScattered clouds.7 mph78%29.71 "HgN/A
5:20 PM75 °FPassing clouds.9 mph61%29.71 "HgN/A
4:50 PM75 °FPassing clouds.9 mph61%29.71 "HgN/A
4:20 PM75 °FPassing clouds.8 mph61%29.71 "HgN/A
3:50 PM75 °FPassing clouds.8 mph61%29.71 "HgN/A
3:20 PM75 °FPassing clouds.8 mph61%29.71 "HgN/A
2:50 PM75 °FPassing clouds.6 mph61%29.71 "HgN/A
2:20 PM75 °FSunny.6 mph61%29.71 "Hg10 mi
1:50 PM75 °FSunny.3 mph61%29.71 "Hg10 mi
1:20 PM73 °FPassing clouds.6 mph69%29.71 "HgN/A
12:50 PM73 °FPassing clouds.6 mph69%29.71 "HgN/A
12:20 PM73 °FPassing clouds.7 mph69%29.71 "HgN/A
11:50 AM73 °FPassing clouds.6 mph69%29.71 "HgN/A
11:20 AM73 °FScattered clouds.6 mph69%29.71 "HgN/A
10:50 AM73 °FScattered clouds.6 mph69%29.71 "HgN/A
10:20 AM72 °FPartly sunny.6 mph73%29.68 "HgN/A
9:50 AM72 °FPartly sunny.8 mph73%29.68 "HgN/A
9:20 AM72 °FPartly sunny.7 mph73%29.68 "HgN/A
8:50 AM72 °FPartly sunny.8 mph73%29.68 "HgN/A
8:20 AM68 °FPartly sunny.10 mph88%29.65 "HgN/A
7:50 AM68 °FPartly sunny.12 mph88%29.65 "HgN/A
7:20 AM68 °FPartly sunny.14 mph88%29.62 "HgN/A
6:50 AM68 °FPassing clouds.12 mph88%29.62 "HgN/A
6:20 AM68 °FPassing clouds.9 mph88%29.62 "HgN/A
5:50 AM68 °FPassing clouds.14 mph88%29.62 "HgN/A
5:20 AM68 °FPassing clouds.18 mph83%29.59 "HgN/A
Weather by CustomWeather, © 2015

See weather overviewHow to use our weather pages